Inquirer Daily News

Weather

Get conditions and forecasts for any City, State, ZIP code or Country:  
Northeast Philadelphia, PA
on Wednesday, January 9, 2013

Wednesday
Previous Day Next Day
Daily Summary
 ActualAverage (KTTN)Record (KTTN)
Temperature
Mean Temperature °F 31°F  
Max Temperature 50°F 39°F 67°F (1937)
Min Temperature 28°F 23°F 4°F (1970)
Degree Days
Heating Degree Days 26 34  
Month to date heating degree days 305  
Since 1 July heating degree days 2200  
Cooling Degree Days 0 0  
Month to date cooling degree days 0  
Year to date cooling degree days 0  
Moisture
Dew Point 33°F   
Average Humidity 76    
Maximum Humidity 93    
Minimum Humidity 59    
Precipitation
Precipitation 0.00 in 0.11 in 1.28 in (1936)
Month to date precipitation 1.04  
Year to date precipitation 1.04  
Wind
Wind Speed 3 mph   
Max Wind Speed 12 mph   
Max Gust Speed 16 mph   
Visibility 8 miles   
Events     

Key: T is trace of precipitation, MM is missing value
Source: NWS Daily Summary
Time(EST)TemperatureDew PointHumidity Pressure Visibility Wind DirectionWind SpeedGust SpeedPrecipitationEvents Conditions
12:54 AM 33.1°F 28.9°F 85% 30.40 in 7.0 miles Calm Calm - N/A   Mostly Cloudy
1:54 AM 33.1°F 28.9°F 85% 30.41 in 7.0 miles Calm Calm - N/A   Overcast
2:54 AM 34.0°F 30.0°F 85% 30.39 in 7.0 miles Calm Calm - N/A   Overcast
3:54 AM 34.0°F 30.0°F 85% 30.39 in 7.0 miles Calm Calm - N/A   Overcast
4:54 AM 30.9°F 28.0°F 89% 30.38 in 7.0 miles Calm Calm - N/A   Clear
5:54 AM 32.0°F 28.0°F 85% 30.38 in 6.0 miles Calm Calm - N/A   Clear
6:54 AM 28.0°F 26.1°F 92% 30.40 in 3.0 miles Calm Calm - N/A   Clear
7:41 AM 28.4°F 26.6°F 93% 30.39 in 2.0 miles Calm Calm - N/A   Clear
7:54 AM 30.0°F 28.0°F 92% 30.39 in 3.0 miles Calm Calm - N/A   Clear
8:54 AM 35.1°F 30.9°F 85% 30.40 in 4.0 miles Calm Calm - N/A   Clear
9:54 AM 37.9°F 33.1°F 83% 30.38 in 5.0 miles Calm Calm - N/A   Haze
10:54 AM 43.0°F 34.0°F 71% 30.35 in 6.0 miles Calm Calm - N/A   Haze
11:54 AM 46.9°F 34.0°F 61% 30.31 in 8.0 miles SSW 6.9 mph - N/A   Mostly Cloudy
12:54 PM 48.9°F 35.1°F 59% 30.30 in 10.0 miles SW 9.2 mph - N/A   Overcast
1:54 PM 48.9°F 36.0°F 61% 30.30 in 10.0 miles WSW 11.5 mph - N/A   Overcast
2:54 PM 48.9°F 37.0°F 64% 30.21 in 10.0 miles SSW 11.5 mph 16.1 mph N/A   Mostly Cloudy
3:54 PM 48.9°F 37.9°F 66% 30.19 in 10.0 miles SSW 9.2 mph - 0.00 in   Mostly Cloudy
4:54 PM 50.0°F 37.9°F 63% 30.20 in 10.0 miles SW 9.2 mph - N/A   Overcast
5:54 PM 48.9°F 37.9°F 66% 30.23 in 10.0 miles West 9.2 mph - N/A   Overcast
6:54 PM 48.0°F 37.0°F 66% 30.25 in 10.0 miles West 8.1 mph - N/A   Mostly Cloudy
7:54 PM 44.6°F 37.4°F 76% 30.26 in 10.0 miles WSW 8.1 mph - N/A   Clear
8:54 PM 46.0°F 37.0°F 71% 30.27 in 10.0 miles WSW 6.9 mph - N/A   Clear
9:54 PM 45.0°F 37.0°F 74% 30.28 in 10.0 miles SW 6.9 mph - N/A   Clear
10:54 PM 45.0°F 35.1°F 68% 30.30 in 10.0 miles WSW 4.6 mph - N/A   Clear
11:54 PM 44.1°F 32.0°F 63% 30.32 in 10.0 miles West 8.1 mph - N/A   Clear
Astronomy
Sunrise:07:21 AM (EST) Moon Rise:04:58 AM (EST)1/9
Sunset:04:53 PM (EST) Moon Set:02:52 PM (EST)1/9
Moon Phase
Jan. 09 Jan. 11 Jan. 18 Jan. 26 Feb. 03

Copyright © 2014 The Weather Underground, Inc.